This is the latest recevied weather packets stored in our database for station/object KI8L. If no packets are shown the sender has not sent any weather packets the latest 10 day(s).
| Time | Temp. | Humidity | Pressure | Rain* | Wind** | Luminosity | Snow |
|---|---|---|---|---|---|---|---|
| 1777206123 | 7.78° C | 97% | 1021.8 hPa | 0 mm | - | 50 W/m² | - |
| 1777205820 | 7.78° C | 96% | 1021.8 hPa | 0 mm | - | 46 W/m² | - |
| 1777205516 | 7.78° C | 97% | 1021.8 hPa | 0 mm | - | 45 W/m² | - |
| 1777205213 | 7.78° C | 98% | 1021.7 hPa | 0 mm | - | 33 W/m² | - |
| 1777204910 | 7.78° C | 97% | 1021.9 hPa | 0 mm | - | 26 W/m² | - |
| 1777204605 | 7.78° C | 97% | 1021.8 hPa | 0 mm | - | 27 W/m² | - |
| 1777204300 | 7.78° C | 98% | 1021.7 hPa | 0 mm | - | 22 W/m² | - |
| 1777203998 | 7.22° C | 98% | 1021.7 hPa | 0 mm | - | 19 W/m² | - |
| 1777203697 | 7.22° C | 98% | 1021.5 hPa | 0 mm | - | 16 W/m² | - |
| 1777203392 | 7.22° C | 98% | 1021.4 hPa | 0 mm | - | 17 W/m² | - |
| 1777203089 | 7.22° C | 98% | 1021.3 hPa | 0 mm | - | 17 W/m² | - |
| 1777202786 | 7.22° C | 98% | 1021.2 hPa | 0 mm | - | 14 W/m² | - |
| 1777202485 | 7.22° C | 99% | 1021.2 hPa | 0 mm | - | 12 W/m² | - |
| 1777202180 | 7.22° C | 99% | 1020.9 hPa | 0 mm | - | 12 W/m² | - |
| 1777201875 | 7.22° C | 98% | 1020.8 hPa | 0 mm | - | 11 W/m² | - |
| 1777201572 | 7.22° C | 98% | 1020.8 hPa | 0 mm | - | 10 W/m² | - |
| 1777201268 | 7.22° C | 99% | 1020.8 hPa | 0 mm | - | 8 W/m² | - |
| 1777200963 | 7.22° C | 98% | 1020.6 hPa | 0 mm | - | 5 W/m² | - |
| 1777200661 | 7.22° C | 99% | 1020.7 hPa | 0 mm | - | 4 W/m² | - |
| 1777200359 | 7.22° C | 98% | 1020.6 hPa | 0 mm | - | 3 W/m² | - |
| 1777200056 | 7.22° C | 98% | 1020.3 hPa | 0 mm | - | 2 W/m² | - |
| 1777199751 | 7.22° C | 98% | 1020.4 hPa | 0 mm | - | 1 W/m² | - |
| 1777199447 | 7.22° C | 98% | 1020.1 hPa | 0 mm | - | 1 W/m² | - |
| 1777199142 | 7.22° C | 98% | 1020.1 hPa | 0 mm | - | 0 W/m² | - |
| 1777198837 | 7.22° C | 98% | 1020 hPa | 0 mm | - | 0 W/m² | - |
* Rain latest hour (hover to see other rain measurements)
** Current wind speed in m/s (hover to see current wind gust speed)